Larissa, Greece

3:17 AM EEST on April 21, 2018 (GMT +0300)
Larisa Air Base

Weather History for LGLR - June, 2013

Change the Weather History Date:

Saturday, June 15, 2013

  Actual Average Record
Temperature  
Mean Temperature 76 °F -  
Max Temperature 91 °F 90 °F - ()
Min Temperature 60 °F 62 °F - ()
Cooling Degree Days 10    
Growing Degree Days 26 (Base 50)    
Moisture  
Dew Point 56 °F    
Average Humidity 53    
Maximum Humidity 94    
Minimum Humidity 17    
Precipitation  
Precipitation 0.00 in 0.03 in - ()
Sea Level Pressure  
Sea Level Pressure 29.92 in    
Wind  
Wind Speed 2 mph ()    
Max Wind Speed 10 mph    
Max Gust Speed -    
Visibility 6.2 miles    
Events      
T = Trace of Precipitation, MM = Missing Value Source: Averaged Metar Reports

Daily Weather History Graph

Daily Weather History Graph

Search for Another Location

Airport or City:

Astronomy

Jun. 15, 2013 Rise Set
Actual Time 6:02 AM EEST 8:59 PM EEST
Civil Twilight 5:29 AM EEST 9:32 PM EEST
Nautical Twilight 4:48 AM EEST 10:13 PM EEST
Astronomical Twilight 4:00 AM EEST 11:01 PM EEST
Moon 12:16 PM EEST (6/15) 12:27 AM EEST (6/15)
Length of Visible Light 16h 02m
Length of Day
14h 57m
Waxing Crescent, 36% of the Moon is Illuminated
Jun 15
Waxing Crescent
Jun 16
First Quarter
Jun 23
Full
Jun 30
Last Quarter
Jul 8
New

Hourly Weather History & Observations

Time (EEST) Temp. Heat Index Dew Point Humidity Pressure Visibility Wind Dir Wind Speed Gust Speed Precip Events Conditions
12:50 AM 68.0 °F - 59.0 °F 73% 29.95 in 6.2 mi Calm Calm - N/A   Mostly Cloudy
1:50 AM 66.2 °F - 60.8 °F 83% 29.92 in 6.2 mi Calm Calm - N/A   Partly Cloudy
3:00 AM 65 °F - 60 °F 80% 29.94 in 6 mi Calm Calm - -   Partly Cloudy
3:50 AM 64.4 °F - 60.8 °F 88% 29.92 in 6.2 mi Calm Calm - N/A   Partly Cloudy
4:50 AM 62.6 °F - 59.0 °F 88% 29.92 in 6.2 mi Calm Calm - N/A   Partly Cloudy
5:50 AM 60.8 °F - 59.0 °F 94% 29.92 in 6.2 mi Calm Calm - N/A   Partly Cloudy
6:50 AM 60.8 °F - 59.0 °F 94% 29.95 in 6.2 mi Calm Calm - N/A   Partly Cloudy
7:50 AM 68.0 °F - 60.8 °F 78% 29.95 in 6.2 mi Calm Calm - N/A   Partly Cloudy
8:50 AM 71.6 °F - 60.8 °F 69% 29.95 in 6.2 mi Calm Calm - N/A   Partly Cloudy
9:00 AM 72 °F - 62 °F 62% 29.95 in 6 mi Calm Calm - -   Scattered Clouds
9:50 AM 77.0 °F - 57.2 °F 50% 29.95 in 6.2 mi Calm Calm - N/A   Partly Cloudy
10:50 AM 82.4 °F 81.7 °F 55.4 °F 39% 29.95 in 6.2 mi Calm Calm - N/A   Partly Cloudy
11:50 AM 86.0 °F - 51.8 °F 31% 29.95 in 6.2 mi SSW 4.6 mph - N/A   Partly Cloudy
12:50 PM 86.0 °F - 50.0 °F 29% 29.92 in 6.2 mi East 4.6 mph - N/A   Partly Cloudy
1:50 PM 89.6 °F - 50.0 °F 26% 29.92 in 6.2 mi Calm Calm - N/A   Partly Cloudy
2:50 PM 89.6 °F - 51.8 °F 27% 29.92 in 6.2 mi NE 5.8 mph - N/A   Partly Cloudy
3:00 PM 90 °F - 51 °F 17% 29.91 in 6 mi NE 5.8 mph - -   Scattered Clouds
3:50 PM 89.6 °F - 51.8 °F 27% 29.89 in 6.2 mi ENE 4.6 mph - N/A   Partly Cloudy
4:50 PM 91.4 °F - 51.8 °F 26% 29.89 in 6.2 mi ENE 9.2 mph - N/A   Partly Cloudy
5:50 PM 87.8 °F 85.7 °F 53.6 °F 31% 29.86 in 6.2 mi ENE 10.4 mph - N/A   Partly Cloudy
6:50 PM 87.8 °F 85.7 °F 53.6 °F 31% 29.86 in 6.2 mi ENE 9.2 mph - N/A   Partly Cloudy
7:50 PM 86.0 °F 84.2 °F 53.6 °F 33% 29.89 in 6.2 mi ENE 9.2 mph - N/A   Partly Cloudy
8:50 PM 80.6 °F 80.5 °F 55.4 °F 42% 29.89 in 6.2 mi ENE 6.9 mph - N/A   Partly Cloudy
9:00 PM 81 °F - 56 °F 32% 29.89 in 6 mi ENE 6.9 mph - -   Scattered Clouds
9:50 PM 75.2 °F - 59.0 °F 57% 29.92 in 6.2 mi ENE 5.8 mph - N/A   Partly Cloudy
10:50 PM 73.4 °F - 59.0 °F 61% 29.92 in 6.2 mi ENE 6.9 mph - N/A   Partly Cloudy
11:50 PM 71.6 °F - 59.0 °F 64% 29.95 in 6.2 mi Calm Calm - N/A   Partly Cloudy